Time,TemperatureF,DewpointF,PressureIn,WindDirection,WindDirectionDegrees,WindSpeedMPH,WindSpeedGustMPH,Humidity,HourlyPrecipIn,Conditions,Clouds,dailyrainin,SoftwareType,DateUTC
2013-04-04 00:00:00,24.1,13.3,30.44,SE,146,0.0,1.0,63,0.00,,,0.00,meteohub,2013-04-04 04:00:00,
2013-04-04 00:01:00,23.9,12.7,30.44,SE,146,0.0,1.0,62,0.00,,,0.00,meteohub,2013-04-04 04:01:00,
2013-04-04 00:02:00,23.9,12.7,30.44,SE,146,0.0,1.0,62,0.00,,,0.00,meteohub,2013-04-04 04:02:00,
2013-04-04 00:04:00,24.1,12.6,30.44,ESE,121,0.0,1.0,61,0.00,,,0.00,meteohub,2013-04-04 04:04:00,
2013-04-04 00:09:00,24.3,13.1,30.43,SE,134,0.0,0.0,62,0.00,,,0.00,meteohub,2013-04-04 04:09:00,
2013-04-04 00:15:00,24.1,12.2,30.43,SE,129,0.0,0.0,60,0.00,,,0.00,meteohub,2013-04-04 04:15:00,
2013-04-04 00:20:00,23.7,12.2,30.43,NE,43,0.0,0.0,61,0.00,,,0.00,meteohub,2013-04-04 04:20:00,
2013-04-04 00:25:00,23.4,11.8,30.43,NE,46,0.0,1.0,61,0.00,,,0.00,meteohub,2013-04-04 04:25:00,
2013-04-04 00:30:00,23.4,12.9,30.43,East,86,0.0,1.0,64,0.00,,,0.00,meteohub,2013-04-04 04:30:00,
2013-04-04 00:35:00,23.4,12.2,30.43,SE,129,0.0,2.0,62,0.00,,,0.00,meteohub,2013-04-04 04:35:00,
2013-04-04 00:41:00,23.4,12.2,30.43,SE,129,0.0,2.0,62,0.00,,,0.00,meteohub,2013-04-04 04:41:00,
2013-04-04 00:46:00,23.2,12.7,30.43,ESE,121,0.0,2.0,64,0.00,,,0.00,meteohub,2013-04-04 04:46:00,
2013-04-04 00:51:00,23.2,12.4,30.42,ESE,105,0.0,1.0,63,0.00,,,0.00,meteohub,2013-04-04 04:51:00,
2013-04-04 00:56:00,22.5,12.7,30.42,ESE,105,0.0,1.0,66,0.00,,,0.00,meteohub,2013-04-04 04:56:00,
2013-04-04 01:01:00,21.9,12.6,30.42,SE,128,0.0,1.0,67,0.00,,,0.00,meteohub,2013-04-04 05:01:00,
2013-04-04 01:07:00,22.3,12.9,30.42,SE,141,0.0,1.0,67,0.00,,,0.00,meteohub,2013-04-04 05:07:00,
2013-04-04 01:12:00,22.3,12.7,30.42,SE,141,0.0,1.0,66,0.00,,,0.00,meteohub,2013-04-04 05:12:00,
2013-04-04 01:17:00,21.9,12.9,30.42,SE,141,0.0,1.0,68,0.00,,,0.00,meteohub,2013-04-04 05:17:00,
2013-04-04 01:22:00,22.3,12.7,30.42,ESE,121,0.0,1.0,66,0.00,,,0.00,meteohub,2013-04-04 05:22:00,
2013-04-04 01:27:00,22.3,12.9,30.41,ESE,122,0.0,1.0,67,0.00,,,0.00,meteohub,2013-04-04 05:27:00,
2013-04-04 01:33:00,21.9,12.6,30.42,SW,228,0.0,1.0,67,0.00,,,0.00,meteohub,2013-04-04 05:33:00,
2013-04-04 01:38:00,21.6,12.6,30.42,NW,326,0.0,0.0,68,0.00,,,0.00,meteohub,2013-04-04 05:38:00,
2013-04-04 01:43:00,21.4,12.4,30.41,NW,326,0.0,1.0,68,0.00,,,0.00,meteohub,2013-04-04 05:43:00,
2013-04-04 01:49:00,21.2,12.6,30.41,NW,326,0.0,1.0,69,0.00,,,0.00,meteohub,2013-04-04 05:49:00,
2013-04-04 01:54:00,21.4,12.4,30.41,ESE,103,0.0,1.0,68,0.00,,,0.00,meteohub,2013-04-04 05:54:00,
2013-04-04 01:59:00,21.4,12.7,30.41,ESE,103,0.0,1.0,69,0.00,,,0.00,meteohub,2013-04-04 05:59:00,
2013-04-04 02:04:00,20.8,12.6,30.41,ESE,105,0.0,1.0,70,0.00,,,0.00,meteohub,2013-04-04 06:04:00,
2013-04-04 02:10:00,20.5,12.9,30.41,ESE,105,0.0,1.0,72,0.00,,,0.00,meteohub,2013-04-04 06:10:00,
2013-04-04 02:15:00,20.1,12.2,30.41,ESE,105,0.0,0.0,71,0.00,,,0.00,meteohub,2013-04-04 06:15:00,
2013-04-04 02:20:00,20.5,12.6,30.41,East,98,0.0,1.0,71,0.00,,,0.00,meteohub,2013-04-04 06:20:00,
2013-04-04 02:25:00,20.7,12.4,30.41,East,97,0.0,1.0,70,0.00,,,0.00,meteohub,2013-04-04 06:25:00,
2013-04-04 02:30:00,20.5,12.6,30.42,SE,142,0.0,1.0,71,0.00,,,0.00,meteohub,2013-04-04 06:30:00,
2013-04-04 02:36:00,20.5,12.2,30.42,SE,143,0.0,1.0,70,0.00,,,0.00,meteohub,2013-04-04 06:36:00,
2013-04-04 02:41:00,20.7,12.0,30.42,SE,143,0.0,1.0,69,0.00,,,0.00,meteohub,2013-04-04 06:41:00,
2013-04-04 02:46:00,20.5,12.6,30.42,SE,143,0.0,0.0,71,0.00,,,0.00,meteohub,2013-04-04 06:46:00,
2013-04-04 02:52:00,20.1,12.9,30.41,SE,143,0.0,0.0,73,0.00,,,0.00,meteohub,2013-04-04 06:52:00,
2013-04-04 02:57:00,19.9,12.4,30.42,SE,143,0.0,0.0,72,0.00,,,0.00,meteohub,2013-04-04 06:57:00,
2013-04-04 03:02:00,19.6,12.4,30.42,SE,142,0.0,0.0,73,0.00,,,0.00,meteohub,2013-04-04 07:02:00,
2013-04-04 03:07:00,19.8,12.7,30.42,SE,143,0.0,0.0,74,0.00,,,0.00,meteohub,2013-04-04 07:07:00,
2013-04-04 03:12:00,19.8,12.6,30.42,SE,142,0.0,1.0,73,0.00,,,0.00,meteohub,2013-04-04 07:12:00,
2013-04-04 03:17:00,19.8,12.7,30.42,SE,142,0.0,1.0,74,0.00,,,0.00,meteohub,2013-04-04 07:17:00,
2013-04-04 03:22:00,19.2,12.6,30.42,ESE,118,0.0,1.0,75,0.00,,,0.00,meteohub,2013-04-04 07:22:00,
2013-04-04 03:28:00,19.2,13.3,30.42,ESE,119,0.0,1.0,77,0.00,,,0.00,meteohub,2013-04-04 07:28:00,
2013-04-04 03:33:00,18.9,12.9,30.42,ESE,118,0.0,1.0,77,0.00,,,0.00,meteohub,2013-04-04 07:33:00,
2013-04-04 03:38:00,18.9,12.2,30.43,ESE,118,0.0,0.0,75,0.00,,,0.00,meteohub,2013-04-04 07:38:00,
2013-04-04 03:44:00,18.9,12.6,30.42,ESE,118,0.0,0.0,76,0.00,,,0.00,meteohub,2013-04-04 07:44:00,
2013-04-04 03:49:00,18.7,13.3,30.43,ESE,117,1.0,0.0,79,0.00,,,0.00,meteohub,2013-04-04 07:49:00,
2013-04-04 03:54:00,19.4,13.1,30.42,SSE,150,0.0,1.0,76,0.00,,,0.00,meteohub,2013-04-04 07:54:00,
2013-04-04 03:59:00,19.6,12.6,30.42,SSE,148,0.0,1.0,74,0.00,,,0.00,meteohub,2013-04-04 07:59:00,
2013-04-04 04:05:00,18.9,12.6,30.42,SSE,148,0.0,1.0,76,0.00,,,0.00,meteohub,2013-04-04 08:05:00,
2013-04-04 04:10:00,18.3,12.4,30.42,SSE,148,0.0,1.0,77,0.00,,,0.00,meteohub,2013-04-04 08:10:00,
2013-04-04 04:15:00,18.3,13.3,30.42,SE,136,0.0,1.0,80,0.00,,,0.00,meteohub,2013-04-04 08:15:00,
2013-04-04 04:20:00,18.5,12.7,30.42,SE,141,0.0,1.0,78,0.00,,,0.00,meteohub,2013-04-04 08:20:00,
2013-04-04 04:25:00,18.7,13.3,30.42,SE,141,0.0,1.0,79,0.00,,,0.00,meteohub,2013-04-04 08:25:00,
2013-04-04 04:31:00,18.5,12.6,30.42,SE,141,0.0,1.0,77,0.00,,,0.00,meteohub,2013-04-04 08:31:00,
2013-04-04 04:36:00,18.1,12.7,30.42,SE,141,0.0,1.0,79,0.00,,,0.00,meteohub,2013-04-04 08:36:00,
2013-04-04 04:41:00,18.3,12.9,30.43,SE,141,0.0,1.0,79,0.00,,,0.00,meteohub,2013-04-04 08:41:00,
2013-04-04 04:46:00,18.7,13.3,30.43,SE,140,0.0,1.0,79,0.00,,,0.00,meteohub,2013-04-04 08:46:00,
2013-04-04 04:52:00,18.7,12.9,30.42,SE,139,0.0,1.0,78,0.00,,,0.00,meteohub,2013-04-04 08:52:00,
2013-04-04 04:57:00,18.3,12.6,30.42,SW,229,0.0,0.0,78,0.00,,,0.00,meteohub,2013-04-04 08:57:00,
2013-04-04 05:02:00,18.0,12.6,30.42,SW,229,0.0,0.0,79,0.00,,,0.00,meteohub,2013-04-04 09:02:00,
2013-04-04 05:07:00,18.0,12.9,30.42,SW,229,0.0,0.0,80,0.00,,,0.00,meteohub,2013-04-04 09:07:00,
2013-04-04 05:12:00,17.8,12.4,30.43,SW,229,0.0,0.0,79,0.00,,,0.00,meteohub,2013-04-04 09:12:00,
2013-04-04 05:17:00,17.6,12.6,30.42,SW,228,0.0,0.0,80,0.00,,,0.00,meteohub,2013-04-04 09:17:00,
2013-04-04 05:22:00,17.8,13.3,30.42,SE,129,0.0,0.0,82,0.00,,,0.00,meteohub,2013-04-04 09:22:00,
2013-04-04 05:27:00,18.1,13.3,30.42,SE,141,0.0,0.0,81,0.00,,,0.00,meteohub,2013-04-04 09:27:00,
2013-04-04 05:32:00,18.3,13.3,30.41,SE,141,0.0,1.0,80,0.00,,,0.00,meteohub,2013-04-04 09:32:00,
2013-04-04 05:37:00,18.1,13.1,30.41,SE,141,0.0,1.0,80,0.00,,,0.00,meteohub,2013-04-04 09:37:00,
2013-04-04 05:42:00,17.4,12.6,30.41,SE,141,0.0,0.0,81,0.00,,,0.00,meteohub,2013-04-04 09:42:00,
2013-04-04 05:48:00,17.1,12.6,30.40,SE,141,0.0,0.0,82,0.00,,,0.00,meteohub,2013-04-04 09:48:00,
2013-04-04 05:53:00,17.2,13.3,30.40,SE,141,0.0,0.0,84,0.00,,,0.00,meteohub,2013-04-04 09:53:00,
2013-04-04 05:59:00,17.4,12.9,30.39,SE,141,0.0,1.0,82,0.00,,,0.00,meteohub,2013-04-04 09:59:00,
2013-04-04 06:04:00,18.1,13.1,30.39,ESE,116,0.0,1.0,80,0.00,,,0.00,meteohub,2013-04-04 10:04:00,
2013-04-04 06:10:00,18.9,13.1,30.39,ESE,108,0.0,1.0,78,0.00,,,0.00,meteohub,2013-04-04 10:10:00,
2013-04-04 06:15:00,19.2,12.9,30.38,ESE,109,0.0,2.0,76,0.00,,,0.00,meteohub,2013-04-04 10:15:00,
2013-04-04 06:20:00,18.5,12.7,30.38,East,96,0.0,2.0,78,0.00,,,0.00,meteohub,2013-04-04 10:20:00,
2013-04-04 06:25:00,17.8,12.7,30.38,ENE,64,0.0,2.0,80,0.00,,,0.00,meteohub,2013-04-04 10:25:00,
2013-04-04 06:31:00,17.4,12.6,30.38,ENE,64,0.0,2.0,81,0.00,,,0.00,meteohub,2013-04-04 10:31:00,
2013-04-04 06:36:00,17.2,12.4,30.38,ENE,64,0.0,2.0,81,0.00,,,0.00,meteohub,2013-04-04 10:36:00,
2013-04-04 06:41:00,17.4,12.9,30.38,East,84,1.0,1.0,82,0.00,,,0.00,meteohub,2013-04-04 10:41:00,
2013-04-04 06:46:00,18.0,13.1,30.37,SSE,150,0.0,1.0,81,0.00,,,0.00,meteohub,2013-04-04 10:46:00,
2013-04-04 06:52:00,18.1,13.3,30.37,SSE,150,0.0,1.0,81,0.00,,,0.00,meteohub,2013-04-04 10:52:00,
2013-04-04 06:57:00,18.1,13.3,30.37,SSE,150,0.0,1.0,81,0.00,,,0.00,meteohub,2013-04-04 10:57:00,
2013-04-04 07:02:00,18.0,13.1,30.37,SSE,151,0.0,0.0,81,0.00,,,0.00,meteohub,2013-04-04 11:02:00,
2013-04-04 07:07:00,18.1,13.6,30.36,West,275,0.0,0.0,82,0.00,,,0.00,meteohub,2013-04-04 11:07:00,
2013-04-04 07:13:00,17.8,13.3,30.37,WSW,240,0.0,1.0,82,0.00,,,0.00,meteohub,2013-04-04 11:13:00,
2013-04-04 07:18:00,17.6,13.3,30.37,WSW,240,0.0,1.0,83,0.00,,,0.00,meteohub,2013-04-04 11:18:00,
2013-04-04 07:23:00,17.8,13.5,30.36,NW,305,0.0,1.0,83,0.00,,,0.00,meteohub,2013-04-04 11:23:00,
2013-04-04 07:29:00,18.0,13.6,30.35,WNW,303,0.0,1.0,83,0.00,,,0.00,meteohub,2013-04-04 11:29:00,
2013-04-04 07:34:00,18.1,13.6,30.36,West,277,0.0,0.0,82,0.00,,,0.00,meteohub,2013-04-04 11:34:00,
2013-04-04 07:40:00,18.5,14.2,30.37,WNW,293,0.0,1.0,83,0.00,,,0.00,meteohub,2013-04-04 11:40:00,
2013-04-04 07:45:00,18.5,14.2,30.37,SSE,158,0.0,1.0,83,0.00,,,0.00,meteohub,2013-04-04 11:45:00,
2013-04-04 07:51:00,18.9,14.4,30.37,ESE,103,1.0,1.0,82,0.00,,,0.00,meteohub,2013-04-04 11:51:00,
2013-04-04 07:56:00,19.8,14.5,30.37,NNW,339,0.0,1.0,80,0.00,,,0.00,meteohub,2013-04-04 11:56:00,
2013-04-04 08:01:00,20.5,14.7,30.37,NNW,339,0.0,1.0,78,0.00,,,0.00,meteohub,2013-04-04 12:01:00,
2013-04-04 08:07:00,20.7,14.5,30.38,WNW,295,0.0,1.0,77,0.00,,,0.00,meteohub,2013-04-04 12:07:00,
2013-04-04 08:12:00,20.8,15.1,30.37,WNW,295,0.0,1.0,78,0.00,,,0.00,meteohub,2013-04-04 12:12:00,
2013-04-04 08:17:00,21.0,15.3,30.37,WNW,295,0.0,0.0,78,0.00,,,0.00,meteohub,2013-04-04 12:17:00,
2013-04-04 08:22:00,21.6,15.8,30.36,WNW,295,0.0,0.0,78,0.00,,,0.00,meteohub,2013-04-04 12:22:00,
2013-04-04 08:28:00,21.9,14.9,30.36,West,274,0.0,0.0,74,0.00,,,0.00,meteohub,2013-04-04 12:28:00,
2013-04-04 08:33:00,22.5,15.8,30.36,West,274,0.0,1.0,75,0.00,,,0.00,meteohub,2013-04-04 12:33:00,
2013-04-04 08:38:00,23.0,16.0,30.35,West,274,0.0,1.0,74,0.00,,,0.00,meteohub,2013-04-04 12:38:00,
2013-04-04 08:43:00,23.4,15.4,30.35,West,281,0.0,1.0,71,0.00,,,0.00,meteohub,2013-04-04 12:43:00,
2013-04-04 08:48:00,23.5,14.9,30.35,NE,40,0.0,2.0,69,0.00,,,0.00,meteohub,2013-04-04 12:48:00,
2013-04-04 08:53:00,24.1,15.1,30.35,WNW,285,0.0,2.0,68,0.00,,,0.00,meteohub,2013-04-04 12:53:00,
2013-04-04 08:59:00,24.4,15.1,30.35,West,280,0.0,2.0,67,0.00,,,0.00,meteohub,2013-04-04 12:59:00,
2013-04-04 09:05:00,25.0,16.5,30.35,West,280,0.0,1.0,70,0.00,,,0.00,meteohub,2013-04-04 13:05:00,
2013-04-04 09:10:00,25.5,16.5,30.35,West,280,0.0,1.0,68,0.00,,,0.00,meteohub,2013-04-04 13:10:00,
2013-04-04 09:15:00,25.9,16.2,30.35,West,280,0.0,0.0,66,0.00,,,0.00,meteohub,2013-04-04 13:15:00,
2013-04-04 09:20:00,26.2,16.2,30.34,West,280,0.0,1.0,65,0.00,,,0.00,meteohub,2013-04-04 13:20:00,
2013-04-04 09:25:00,27.0,16.3,30.34,West,279,0.0,1.0,64,0.00,,,0.00,meteohub,2013-04-04 13:25:00,
2013-04-04 09:31:00,27.3,16.7,30.34,West,266,0.0,1.0,64,0.00,,,0.00,meteohub,2013-04-04 13:31:00,
2013-04-04 09:36:00,27.9,17.6,30.33,West,267,0.0,1.0,65,0.00,,,0.00,meteohub,2013-04-04 13:36:00,
2013-04-04 09:41:00,28.6,17.6,30.33,West,271,0.0,1.0,63,0.00,,,0.00,meteohub,2013-04-04 13:41:00,
2013-04-04 09:46:00,28.9,17.6,30.32,West,278,0.0,1.0,62,0.00,,,0.00,meteohub,2013-04-04 13:46:00,
2013-04-04 09:52:00,29.5,17.8,30.31,West,274,0.0,2.0,61,0.00,,,0.00,meteohub,2013-04-04 13:52:00,
2013-04-04 09:57:00,29.8,18.0,30.31,West,271,1.0,2.0,61,0.00,,,0.00,meteohub,2013-04-04 13:57:00,
2013-04-04 10:02:00,30.9,18.7,30.30,WNW,288,1.0,1.0,60,0.00,,,0.00,meteohub,2013-04-04 14:02:00,
2013-04-04 10:08:00,31.8,18.7,30.30,West,277,0.0,1.0,58,0.00,,,0.00,meteohub,2013-04-04 14:08:00,
2013-04-04 10:13:00,32.2,19.0,30.30,WNW,283,0.0,3.0,58,0.00,,,0.00,meteohub,2013-04-04 14:13:00,
2013-04-04 10:18:00,32.7,18.3,30.29,West,280,0.0,3.0,55,0.00,,,0.00,meteohub,2013-04-04 14:18:00,
2013-04-04 10:24:00,32.9,19.4,30.29,WNW,282,0.0,3.0,57,0.00,,,0.00,meteohub,2013-04-04 14:24:00,
2013-04-04 10:29:00,33.4,19.4,30.29,West,281,1.0,2.0,56,0.00,,,0.00,meteohub,2013-04-04 14:29:00,
2013-04-04 10:34:00,34.0,19.0,30.29,WNW,283,0.0,3.0,54,0.00,,,0.00,meteohub,2013-04-04 14:34:00,
2013-04-04 10:39:00,35.1,21.4,30.29,WNW,288,0.0,3.0,57,0.00,,,0.00,meteohub,2013-04-04 14:39:00,
2013-04-04 10:44:00,36.0,19.6,30.29,West,280,0.0,3.0,51,0.00,,,0.00,meteohub,2013-04-04 14:44:00,
2013-04-04 10:50:00,36.5,19.2,30.29,ENE,61,0.0,3.0,49,0.00,,,0.00,meteohub,2013-04-04 14:50:00,
2013-04-04 10:55:00,37.0,19.2,30.28,West,277,2.0,3.0,48,0.00,,,0.00,meteohub,2013-04-04 14:55:00,
2013-04-04 11:00:00,37.8,18.9,30.28,WNW,282,1.0,3.0,46,0.00,,,0.00,meteohub,2013-04-04 15:00:00,
2013-04-04 11:06:00,38.1,18.1,30.28,WNW,283,2.0,4.0,44,0.00,,,0.00,meteohub,2013-04-04 15:06:00,
2013-04-04 11:12:00,38.8,18.3,30.28,WNW,290,1.0,4.0,43,0.00,,,0.00,meteohub,2013-04-04 15:12:00,
2013-04-04 11:17:00,39.6,17.8,30.28,West,273,2.0,4.0,41,0.00,,,0.00,meteohub,2013-04-04 15:17:00,
2013-04-04 11:22:00,40.3,18.0,30.28,West,270,0.0,4.0,40,0.00,,,0.00,meteohub,2013-04-04 15:22:00,
2013-04-04 11:27:00,41.4,19.4,30.28,WNW,300,2.0,4.0,41,0.00,,,0.00,meteohub,2013-04-04 15:27:00,
2013-04-04 11:33:00,42.3,19.0,30.27,North,349,0.0,4.0,39,0.00,,,0.00,meteohub,2013-04-04 15:33:00,
2013-04-04 11:38:00,42.4,17.4,30.27,West,276,0.0,4.0,36,0.00,,,0.00,meteohub,2013-04-04 15:38:00,
2013-04-04 11:43:00,42.6,17.6,30.27,West,277,2.0,4.0,36,0.00,,,0.00,meteohub,2013-04-04 15:43:00,
2013-04-04 11:49:00,43.0,18.5,30.27,WNW,283,0.0,4.0,37,0.00,,,0.00,meteohub,2013-04-04 15:49:00,
2013-04-04 11:54:00,43.9,18.0,30.26,WNW,299,0.0,4.0,35,0.00,,,0.00,meteohub,2013-04-04 15:54:00,
2013-04-04 11:59:00,44.1,17.4,30.26,NW,315,0.0,4.0,34,0.00,,,0.00,meteohub,2013-04-04 15:59:00,
2013-04-04 12:05:00,45.3,18.0,30.25,North,354,0.0,3.0,33,0.00,,,0.00,meteohub,2013-04-04 16:05:00,
2013-04-04 12:10:00,46.0,17.1,30.25,West,281,0.0,2.0,31,0.00,,,0.00,meteohub,2013-04-04 16:10:00,
2013-04-04 12:17:00,46.8,18.5,30.24,WNW,287,0.0,2.0,32,0.00,,,0.00,meteohub,2013-04-04 16:17:00,
2013-04-04 12:22:00,47.8,16.3,30.23,East,96,4.0,4.0,28,0.00,,,0.00,meteohub,2013-04-04 16:22:00,
2013-04-04 12:27:00,48.7,17.1,30.23,WNW,283,0.0,5.0,28,0.00,,,0.00,meteohub,2013-04-04 16:27:00,
2013-04-04 12:32:00,49.5,16.0,30.22,WSW,241,2.0,5.0,26,0.00,,,0.00,meteohub,2013-04-04 16:32:00,
2013-04-04 12:37:00,50.7,19.6,30.22,SSE,153,1.0,5.0,29,0.00,,,0.00,meteohub,2013-04-04 16:37:00,
2013-04-04 12:42:00,52.2,14.4,30.21,ENE,63,1.0,5.0,22,0.00,,,0.00,meteohub,2013-04-04 16:42:00,
2013-04-04 12:47:00,52.9,12.9,30.21,ESE,122,7.0,7.0,20,0.00,,,0.00,meteohub,2013-04-04 16:47:00,
2013-04-04 12:53:00,53.4,12.2,30.21,East,86,6.0,7.0,19,0.00,,,0.00,meteohub,2013-04-04 16:53:00,
2013-04-04 12:58:00,54.0,12.6,30.20,SE,135,7.0,7.0,19,0.00,,,0.00,meteohub,2013-04-04 16:58:00,
2013-04-04 13:03:00,54.3,10.4,30.19,SSE,153,2.0,8.0,17,0.00,,,0.00,meteohub,2013-04-04 17:03:00,
2013-04-04 13:08:00,54.1,10.2,30.19,ESE,108,3.0,8.0,17,0.00,,,0.00,meteohub,2013-04-04 17:08:00,
2013-04-04 13:15:00,54.3,10.4,30.19,WSW,244,3.0,9.0,17,0.00,,,0.00,meteohub,2013-04-04 17:15:00,
2013-04-04 13:21:00,55.4,11.3,30.18,West,277,1.0,9.0,17,0.00,,,0.00,meteohub,2013-04-04 17:21:00,
2013-04-04 13:27:00,55.8,14.2,30.18,ESE,115,1.0,6.0,19,0.00,,,0.00,meteohub,2013-04-04 17:27:00,
2013-04-04 13:32:00,55.8,11.7,30.18,WSW,256,1.0,11.0,17,0.00,,,0.00,meteohub,2013-04-04 17:32:00,
2013-04-04 13:38:00,56.3,12.0,30.17,ESE,117,0.0,11.0,17,0.00,,,0.00,meteohub,2013-04-04 17:38:00,
2013-04-04 13:43:00,56.1,13.1,30.17,East,91,5.0,11.0,18,0.00,,,0.00,meteohub,2013-04-04 17:43:00,
2013-04-04 13:48:00,56.3,12.0,30.16,NE,44,1.0,7.0,17,0.00,,,0.00,meteohub,2013-04-04 17:48:00,
2013-04-04 13:54:00,55.9,9.0,30.16,WSW,252,2.0,7.0,15,0.00,,,0.00,meteohub,2013-04-04 17:54:00,
2013-04-04 13:59:00,55.9,11.7,30.16,WSW,239,1.0,7.0,17,0.00,,,0.00,meteohub,2013-04-04 17:59:00,
2013-04-04 14:04:00,56.3,13.3,30.16,SE,129,3.0,6.0,18,0.00,,,0.00,meteohub,2013-04-04 18:04:00,
2013-04-04 14:10:00,55.8,12.9,30.16,East,89,2.0,6.0,18,0.00,,,0.00,meteohub,2013-04-04 18:10:00,
2013-04-04 14:15:00,55.6,14.0,30.16,ENE,57,2.0,9.0,19,0.00,,,0.00,meteohub,2013-04-04 18:15:00,
2013-04-04 14:20:00,55.8,12.9,30.15,ESE,122,3.0,9.0,18,0.00,,,0.00,meteohub,2013-04-04 18:20:00,
2013-04-04 14:25:00,55.6,11.5,30.15,NE,49,1.0,7.0,17,0.00,,,0.00,meteohub,2013-04-04 18:25:00,
2013-04-04 14:30:00,55.6,14.0,30.14,East,85,3.0,6.0,19,0.00,,,0.00,meteohub,2013-04-04 18:30:00,
2013-04-04 14:35:00,55.2,14.9,30.14,East,98,1.0,6.0,20,0.00,,,0.00,meteohub,2013-04-04 18:35:00,
2013-04-04 14:41:00,55.0,13.5,30.14,ENE,72,2.0,8.0,19,0.00,,,0.00,meteohub,2013-04-04 18:41:00,
2013-04-04 14:46:00,55.0,14.7,30.14,ESE,106,2.0,8.0,20,0.00,,,0.00,meteohub,2013-04-04 18:46:00,
2013-04-04 14:51:00,55.2,13.6,30.14,NNE,30,1.0,8.0,19,0.00,,,0.00,meteohub,2013-04-04 18:51:00,
2013-04-04 14:57:00,55.8,15.3,30.14,ESE,102,1.0,6.0,20,0.00,,,0.00,meteohub,2013-04-04 18:57:00,
2013-04-04 15:02:00,56.1,14.4,30.14,ESE,103,7.0,7.0,19,0.00,,,0.00,meteohub,2013-04-04 19:02:00,
2013-04-04 15:07:00,55.9,15.4,30.14,West,262,1.0,9.0,20,0.00,,,0.00,meteohub,2013-04-04 19:07:00,
2013-04-04 15:12:00,56.3,14.5,30.13,SSW,211,0.0,9.0,19,0.00,,,0.00,meteohub,2013-04-04 19:12:00,
2013-04-04 15:17:00,56.3,14.5,30.13,ESE,107,1.0,9.0,19,0.00,,,0.00,meteohub,2013-04-04 19:17:00,
2013-04-04 15:22:00,56.7,16.0,30.12,WNW,285,2.0,7.0,20,0.00,,,0.00,meteohub,2013-04-04 19:22:00,
2013-04-04 15:27:00,56.8,19.4,30.12,ESE,120,1.0,7.0,23,0.00,,,0.00,meteohub,2013-04-04 19:27:00,
2013-04-04 15:33:00,56.8,16.2,30.12,SE,135,3.0,5.0,20,0.00,,,0.00,meteohub,2013-04-04 19:33:00,
2013-04-04 15:38:00,56.8,15.1,30.11,ESE,122,0.0,6.0,19,0.00,,,0.00,meteohub,2013-04-04 19:38:00,
2013-04-04 15:43:00,56.8,16.2,30.11,ESE,103,2.0,6.0,20,0.00,,,0.00,meteohub,2013-04-04 19:43:00,
2013-04-04 15:48:00,56.8,15.1,30.11,SE,128,1.0,6.0,19,0.00,,,0.00,meteohub,2013-04-04 19:48:00,
2013-04-04 15:54:00,56.7,16.0,30.11,ENE,71,7.0,7.0,20,0.00,,,0.00,meteohub,2013-04-04 19:54:00,
2013-04-04 15:59:00,56.5,20.1,30.10,SSE,160,3.0,6.0,24,0.00,,,0.00,meteohub,2013-04-04 19:59:00,
2013-04-04 16:04:00,56.5,17.1,30.10,East,88,5.0,7.0,21,0.00,,,0.00,meteohub,2013-04-04 20:04:00,
2013-04-04 16:10:00,56.1,17.8,30.10,East,85,1.0,7.0,22,0.00,,,0.00,meteohub,2013-04-04 20:10:00,
2013-04-04 16:15:00,56.1,16.7,30.10,East,86,2.0,7.0,21,0.00,,,0.00,meteohub,2013-04-04 20:15:00,
2013-04-04 16:20:00,56.1,15.6,30.09,WSW,254,0.0,6.0,20,0.00,,,0.00,meteohub,2013-04-04 20:20:00,
2013-04-04 16:26:00,56.1,18.9,30.09,East,86,4.0,6.0,23,0.00,,,0.00,meteohub,2013-04-04 20:26:00,
2013-04-04 16:31:00,56.1,16.7,30.09,ESE,116,1.0,5.0,21,0.00,,,0.00,meteohub,2013-04-04 20:31:00,
2013-04-04 16:36:00,56.1,17.8,30.09,East,94,2.0,5.0,22,0.00,,,0.00,meteohub,2013-04-04 20:36:00,
2013-04-04 16:42:00,56.1,17.8,30.09,SE,128,1.0,5.0,22,0.00,,,0.00,meteohub,2013-04-04 20:42:00,
2013-04-04 16:47:00,55.9,16.5,30.08,ESE,122,3.0,5.0,21,0.00,,,0.00,meteohub,2013-04-04 20:47:00,
2013-04-04 16:52:00,55.9,17.6,30.08,SE,135,1.0,7.0,22,0.00,,,0.00,meteohub,2013-04-04 20:52:00,
2013-04-04 16:57:00,55.9,19.6,30.08,SW,231,1.0,7.0,24,0.00,,,0.00,meteohub,2013-04-04 20:57:00,
2013-04-04 17:03:00,55.8,17.4,30.08,SE,128,2.0,7.0,22,0.00,,,0.00,meteohub,2013-04-04 21:03:00,
2013-04-04 17:08:00,55.8,18.5,30.07,East,80,1.0,8.0,23,0.00,,,0.00,meteohub,2013-04-04 21:08:00,
2013-04-04 17:13:00,55.6,17.2,30.07,SE,131,2.0,8.0,22,0.00,,,0.00,meteohub,2013-04-04 21:13:00,
2013-04-04 17:18:00,55.2,18.1,30.07,East,96,3.0,8.0,23,0.00,,,0.00,meteohub,2013-04-04 21:18:00,
2013-04-04 17:24:00,55.2,18.1,30.07,SSE,149,3.0,8.0,23,0.00,,,0.00,meteohub,2013-04-04 21:24:00,
2013-04-04 17:29:00,54.9,18.7,30.07,ESE,108,4.0,13.0,24,0.00,,,0.00,meteohub,2013-04-04 21:29:00,
2013-04-04 17:35:00,54.7,19.6,30.07,ESE,110,3.0,13.0,25,0.00,,,0.00,meteohub,2013-04-04 21:35:00,
2013-04-04 17:40:00,54.3,19.2,30.06,SE,142,0.0,13.0,25,0.00,,,0.00,meteohub,2013-04-04 21:40:00,
2013-04-04 17:45:00,54.1,19.0,30.07,East,86,0.0,7.0,25,0.00,,,0.00,meteohub,2013-04-04 21:45:00,
2013-04-04 17:50:00,54.0,18.9,30.06,East,84,7.0,9.0,25,0.00,,,0.00,meteohub,2013-04-04 21:50:00,
2013-04-04 17:55:00,53.8,18.9,30.07,East,82,3.0,10.0,25,0.00,,,0.00,meteohub,2013-04-04 21:55:00,
2013-04-04 18:00:00,53.4,18.5,30.07,East,93,4.0,10.0,25,0.00,,,0.00,meteohub,2013-04-04 22:00:00,
2013-04-04 18:05:00,53.2,18.3,30.07,SE,132,3.0,12.0,25,0.00,,,0.00,meteohub,2013-04-04 22:05:00,
2013-04-04 18:10:00,53.1,19.0,30.07,ESE,121,5.0,12.0,26,0.00,,,0.00,meteohub,2013-04-04 22:10:00,
2013-04-04 18:15:00,53.1,19.0,30.07,ESE,117,7.0,12.0,26,0.00,,,0.00,meteohub,2013-04-04 22:15:00,
2013-04-04 18:20:00,52.9,19.8,30.07,East,101,3.0,11.0,27,0.00,,,0.00,meteohub,2013-04-04 22:20:00,
2013-04-04 18:25:00,52.5,19.4,30.07,SE,127,6.0,11.0,27,0.00,,,0.00,meteohub,2013-04-04 22:25:00,
2013-04-04 18:31:00,52.3,20.1,30.07,ESE,107,2.0,11.0,28,0.00,,,0.00,meteohub,2013-04-04 22:31:00,
2013-04-04 18:36:00,52.2,19.2,30.07,East,101,4.0,9.0,27,0.00,,,0.00,meteohub,2013-04-04 22:36:00,
2013-04-04 18:41:00,52.0,19.0,30.07,ESE,117,3.0,9.0,27,0.00,,,0.00,meteohub,2013-04-04 22:41:00,
2013-04-04 18:47:00,51.8,18.9,30.07,ESE,116,3.0,9.0,27,0.00,,,0.00,meteohub,2013-04-04 22:47:00,
2013-04-04 18:52:00,51.6,19.6,30.06,ESE,117,6.0,9.0,28,0.00,,,0.00,meteohub,2013-04-04 22:52:00,
2013-04-04 18:57:00,51.4,19.4,30.06,ESE,117,1.0,9.0,28,0.00,,,0.00,meteohub,2013-04-04 22:57:00,
2013-04-04 19:02:00,51.3,20.1,30.06,SSE,162,0.0,10.0,29,0.00,,,0.00,meteohub,2013-04-04 23:02:00,
2013-04-04 19:07:00,51.3,19.2,30.06,ESE,105,0.0,10.0,28,0.00,,,0.00,meteohub,2013-04-04 23:07:00,
2013-04-04 19:12:00,50.9,18.9,30.06,SE,126,2.0,10.0,28,0.00,,,0.00,meteohub,2013-04-04 23:12:00,
2013-04-04 19:17:00,50.7,18.9,30.06,ESE,103,3.0,8.0,28,0.00,,,0.00,meteohub,2013-04-04 23:17:00,
2013-04-04 19:22:00,50.5,18.7,30.06,SE,133,0.0,8.0,28,0.00,,,0.00,meteohub,2013-04-04 23:22:00,
2013-04-04 19:27:00,50.4,19.2,30.06,SE,142,0.0,8.0,29,0.00,,,0.00,meteohub,2013-04-04 23:27:00,
2013-04-04 19:32:00,50.4,20.1,30.06,SE,138,1.0,5.0,30,0.00,,,0.00,meteohub,2013-04-04 23:32:00,
2013-04-04 19:37:00,50.2,19.9,30.06,ESE,108,4.0,5.0,30,0.00,,,0.00,meteohub,2013-04-04 23:37:00,
2013-04-04 19:42:00,50.0,19.0,30.06,SE,136,3.0,6.0,29,0.00,,,0.00,meteohub,2013-04-04 23:42:00,
2013-04-04 19:48:00,49.8,19.6,30.06,ESE,117,1.0,6.0,30,0.00,,,0.00,meteohub,2013-04-04 23:48:00,
2013-04-04 19:53:00,49.6,19.4,30.06,ESE,113,1.0,6.0,30,0.00,,,0.00,meteohub,2013-04-04 23:53:00,
2013-04-04 19:59:00,49.5,19.2,30.06,SE,141,0.0,4.0,30,0.00,,,0.00,meteohub,2013-04-04 23:59:00,
2013-04-04 20:04:00,49.3,19.2,30.05,SE,135,0.0,5.0,30,0.00,,,0.00,meteohub,2013-04-05 00:04:00,
2013-04-04 20:09:00,48.9,19.6,30.05,ESE,113,0.0,5.0,31,0.00,,,0.00,meteohub,2013-04-05 00:09:00,
2013-04-04 20:15:00,48.9,20.3,30.06,ESE,110,0.0,5.0,32,0.00,,,0.00,meteohub,2013-04-05 00:15:00,
2013-04-04 20:20:00,48.6,19.9,30.05,SE,124,0.0,4.0,32,0.00,,,0.00,meteohub,2013-04-05 00:20:00,
2013-04-04 20:25:00,48.6,20.8,30.05,ESE,109,0.0,4.0,33,0.00,,,0.00,meteohub,2013-04-05 00:25:00,
2013-04-04 20:31:00,48.2,19.0,30.05,East,96,0.0,3.0,31,0.00,,,0.00,meteohub,2013-04-05 00:31:00,
2013-04-04 20:36:00,48.0,20.3,30.06,ESE,122,2.0,3.0,33,0.00,,,0.00,meteohub,2013-04-05 00:36:00,
2013-04-04 20:41:00,48.0,19.6,30.06,East,100,1.0,3.0,32,0.00,,,0.00,meteohub,2013-04-05 00:41:00,
2013-04-04 20:47:00,48.0,19.6,30.06,East,96,2.0,3.0,32,0.00,,,0.00,meteohub,2013-04-05 00:47:00,
2013-04-04 20:52:00,48.2,19.8,30.06,East,79,1.0,3.0,32,0.00,,,0.00,meteohub,2013-04-05 00:52:00,
2013-04-04 20:57:00,48.0,19.6,30.06,East,101,1.0,2.0,32,0.00,,,0.00,meteohub,2013-04-05 00:57:00,
2013-04-04 21:02:00,47.8,18.7,30.06,SSE,153,1.0,2.0,31,0.00,,,0.00,meteohub,2013-04-05 01:02:00,
2013-04-04 21:07:00,48.0,20.3,30.06,SE,128,1.0,2.0,33,0.00,,,0.00,meteohub,2013-04-05 01:07:00,
2013-04-04 21:13:00,48.2,19.0,30.06,SSE,158,0.0,2.0,31,0.00,,,0.00,meteohub,2013-04-05 01:13:00,
2013-04-04 21:18:00,47.8,18.0,30.06,WSW,256,0.0,2.0,30,0.00,,,0.00,meteohub,2013-04-05 01:18:00,
2013-04-04 21:23:00,48.0,19.6,30.06,East,91,0.0,2.0,32,0.00,,,0.00,meteohub,2013-04-05 01:23:00,
2013-04-04 21:28:00,47.8,19.4,30.06,SE,145,1.0,4.0,32,0.00,,,0.00,meteohub,2013-04-05 01:28:00,
2013-04-04 21:33:00,47.8,18.7,30.06,SE,139,0.0,4.0,31,0.00,,,0.00,meteohub,2013-04-05 01:33:00,
2013-04-04 21:39:00,47.8,20.1,30.06,SE,126,0.0,5.0,33,0.00,,,0.00,meteohub,2013-04-05 01:39:00,
2013-04-04 21:44:00,47.8,18.7,30.06,SW,219,1.0,5.0,31,0.00,,,0.00,meteohub,2013-04-05 01:44:00,
2013-04-04 21:49:00,47.8,18.7,30.06,WSW,253,0.0,5.0,31,0.00,,,0.00,meteohub,2013-04-05 01:49:00,
2013-04-04 21:54:00,47.7,19.2,30.06,ESE,118,0.0,3.0,32,0.00,,,0.00,meteohub,2013-04-05 01:54:00,
2013-04-04 21:59:00,47.5,19.0,30.06,SE,124,0.0,3.0,32,0.00,,,0.00,meteohub,2013-04-05 01:59:00,
2013-04-04 22:04:00,47.5,19.8,30.06,SE,125,0.0,3.0,33,0.00,,,0.00,meteohub,2013-04-05 02:04:00,
2013-04-04 22:10:00,47.3,18.9,30.06,SE,139,1.0,2.0,32,0.00,,,0.00,meteohub,2013-04-05 02:10:00,
2013-04-04 22:15:00,47.1,19.4,30.06,SSE,157,0.0,4.0,33,0.00,,,0.00,meteohub,2013-04-05 02:15:00,
2013-04-04 22:20:00,46.9,19.9,30.06,SSE,155,0.0,4.0,34,0.00,,,0.00,meteohub,2013-04-05 02:20:00,
2013-04-04 22:25:00,46.9,19.9,30.06,SE,125,0.0,2.0,34,0.00,,,0.00,meteohub,2013-04-05 02:25:00,
2013-04-04 22:31:00,46.9,20.7,30.06,SSE,161,0.0,3.0,35,0.00,,,0.00,meteohub,2013-04-05 02:31:00,
2013-04-04 22:36:00,46.8,19.9,30.06,ESE,118,1.0,3.0,34,0.00,,,0.00,meteohub,2013-04-05 02:36:00,
2013-04-04 22:41:00,46.9,19.4,30.06,SSW,210,0.0,3.0,33,0.00,,,0.00,meteohub,2013-04-05 02:41:00,
2013-04-04 22:47:00,46.8,19.9,30.05,SW,225,0.0,3.0,34,0.00,,,0.00,meteohub,2013-04-05 02:47:00,
2013-04-04 22:52:00,46.8,19.2,30.05,ESE,113,0.0,3.0,33,0.00,,,0.00,meteohub,2013-04-05 02:52:00,
2013-04-04 22:57:00,46.8,21.2,30.05,SSW,210,2.0,3.0,36,0.00,,,0.00,meteohub,2013-04-05 02:57:00,
2013-04-04 23:02:00,46.8,19.9,30.05,ESE,103,0.0,3.0,34,0.00,,,0.00,meteohub,2013-04-05 03:02:00,
2013-04-04 23:07:00,46.6,20.3,30.05,ESE,107,0.0,3.0,35,0.00,,,0.00,meteohub,2013-04-05 03:07:00,
2013-04-04 23:12:00,46.4,20.3,30.04,SSE,149,0.0,3.0,35,0.00,,,0.00,meteohub,2013-04-05 03:12:00,
2013-04-04 23:17:00,46.6,19.8,30.04,SE,130,0.0,3.0,34,0.00,,,0.00,meteohub,2013-04-05 03:17:00,
2013-04-04 23:22:00,46.6,21.7,30.04,SE,130,0.0,4.0,37,0.00,,,0.00,meteohub,2013-04-05 03:22:00,
2013-04-04 23:27:00,46.2,20.7,30.04,ESE,108,0.0,4.0,36,0.00,,,0.00,meteohub,2013-04-05 03:27:00,
2013-04-04 23:32:00,46.0,21.2,30.04,ESE,107,0.0,4.0,37,0.00,,,0.00,meteohub,2013-04-05 03:32:00,
2013-04-04 23:37:00,45.7,22.1,30.03,SE,139,0.0,2.0,39,0.00,,,0.00,meteohub,2013-04-05 03:37:00,
2013-04-04 23:43:00,45.7,20.8,30.03,SE,129,0.0,2.0,37,0.00,,,0.00,meteohub,2013-04-05 03:43:00,
2013-04-04 23:48:00,45.5,21.4,30.03,ESE,113,0.0,1.0,38,0.00,,,0.00,meteohub,2013-04-05 03:48:00,
2013-04-04 23:53:00,45.3,21.7,30.03,ESE,113,0.0,1.0,39,0.00,,,0.00,meteohub,2013-04-05 03:53:00,
2013-04-04 23:58:00,45.0,22.1,30.03,ESE,109,1.0,1.0,40,0.00,,,0.00,meteohub,2013-04-05 03:58:00,